SCP
0 1 1 1 1 1 1 1 1 1 1 1 0 0 0 0 0 0 0 0 0 0 0 0 0 0 0 0 0 0 0 0 0 0 0 0 0 0 0 0 0 0 0
0 1 1 1 1 1 1 1 1 1 1 1 0 0 0 0 0 0 0 0 0 0 0 0 0 0 0 0 0 0 0 0 0 0 0 0 0 0 0 0 0 0 1
1 1 1 1 1 1 1 1 1 1 1 1 0 0 0 0 0 0 0 0 0 0 0 0 0 0 0 0 0 0 0 0 0 0 0 0 0 0 0 0 0 1 1
1 1 1 1 1 1 1 1 1 1 1 0 0 0 0 0 0 0 0 0 0 0 0 0 0 0 0 0 0 0 0 0 0 0 0 0 0 0 0 0 1 1 1
1 1 1 1 1 1 1 1 1 1 1 0 0 0 0 0 0 0 0 0 0 0 0 0 0 0 0 0 0 0 0 0 0 0 0 0 0 0 0 1 1 1 1
0 1 1 1 1 1 1 1 1 1 1 0 0 0 0 0 0 0 0 0 0 0 0 0 0 0 0 0 0 0 0 0 0 0 0 0 0 0 1 1 1 1 1
1 1 1 1 1 1 1 1 1 1 1 0 0 0 0 0 0 0 0 0 0 0 0 0 0 0 0 0 0 0 0 0 0 0 0 0 0 0 1 1 1 1 1
1 1 1 1 1 1 1 1 1 1 1 1 0 0 0 0 0 0 0 0 0 0 0 0 0 0 0 0 0 0 0 0 0 0 0 0 0 0 1 1 1 1 1
1 0 0 1 1 1 1 1 1 1 1 1 0 0 0 0 0 0 0 0 0 0 0 0 0 0 0 0 0 0 0 0 0 0 0 0 0 0 1 1 1 1 1
0 0 0 0 0 1 1 1 1 1 1 1 1 1 0 0 0 0 0 0 0 0 0 0 0 0 0 0 0 0 0 0 0 0 0 0 0 0 1 1 1 1 1
0 0 0 0 0 0 1 1 1 1 1 1 1 1 1 1 0 0 0 0 0 0 0 0 0 0 0 0 0 0 0 0 0 0 0 0 0 0 1 1 1 1 1
0 0 0 0 0 0 0 1 1 1 1 1 1 1 1 1 1 0 0 0 0 0 0 0 0 0 0 0 0 0 0 0 0 0 0 0 0 0 0 1 1 1 1
0 0 0 0 0 0 0 0 1 1 1 1 1 1 1 1 1 1 0 0 0 0 0 0 0 0 0 0 0 0 0 0 0 0 0 0 0 0 0 0 0 1 1
0 0 0 0 0 0 0 0 1 1 1 1 1 1 1 1 1 1 0 0 0 0 0 0 0 0 0 0 0 0 0 0 0 0 0 0 0 0 0 0 0 0 0
0 0 0 0 0 0 0 0 0 0 1 1 1 1 1 1 1 0 0 0 0 0 0 0 0 0 0 0 0 0 0 0 0 0 0 0 0 0 0 0 0 1 1
0 0 0 0 0 0 0 0 0 0 0 0 0 0 0 0 0 0 0 0 0 0 0 0 0 0 0 0 0 0 0 0 0 0 0 0 0 0 0 0 1 1 1
0 0 0 0 0 0 0 0 0 0 0 0 0 0 0 0 0 0 0 0 0 0 0 0 0 0 0 0 0 0 0 0 0 0 0 0 0 0 0 0 1 1 1
0 0 0 0 0 0 0 0 0 0 0 0 0 0 0 0 0 0 0 0 0 0 0 0 0 0 0 0 0 0 0 0 0 0 0 0 0 0 0 0 0 0 1
0 0 0 0 0 0 0 0 0 0 0 0 0 0 0 0 0 0 0 0 0 0 0 0 0 0 0 0 0 0 0 0 0 0 0 0 0 0 0 0 0 0 0
0 0 0 0 0 0 0 0 0 0 0 0 0 0 0 0 0 0 0 0 0 0 0 0 0 0 0 0 0 0 0 0 0 0 0 0 0 0 0 0 0 0 0
0 0 0 0 0 0 0 0 0 0 0 0 0 0 0 0 0 0 0 0 0 0 0 0 0 0 0 0 0 0 0 0 0 0 0 0 0 0 0 0 0 0 0
0 0 0 0 0 0 0 0 0 0 0 0 0 0 0 0 0 0 0 0 0 0 0 0 0 0 0 0 0 0 0 0 0 0 0 0 0 0 0 0 0 0 0
0 0 0 0 0 0 0 0 0 0 0 0 0 0 0 0 0 0 0 0 0 0 0 0 0 0 0 0 0 0 0 0 0 0 0 0 0 0 0 0 0 0 0
0 0 0 0 0 0 0 0 0 0 0 0 0 0 0 0 0 0 0 0 0 0 0 0 0 0 0 0 0 0 0 0 0 0 0 0 0 0 0 0 0 0 0
0 0 0 0 0 0 0 0 0 0 0 0 0 0 0 0 0 0 0 0 0 0 0 0 0 0 0 0 0 0 0 0 0 0 0 0 0 0 0 0 0 0 0
0 0 0 0 0 0 0 0 0 0 0 0 0 0 0 0 0 0 0 0 0 0 0 0 0 0 0 0 0 0 0 0 0 0 0 0 0 0 0 0 0 0 0
Wind_Speed
5 7 12 13 14 13 14 14 13 13 13 13 13 13 14 14 14 14 14 13 13 12 12 11 10 9 9 8 8 8 8 8 8 8 9 9 9 9 8 9 9 7 11
9 8 13 14 14 13 14 14 13 13 13 12 12 12 12 12 13 13 12 12 11 11 11 10 9 8 7 7 7 7 7 6 6 7 7 7 8 8 8 9 9 6 11
11 9 11 13 13 13 13 14 13 13 12 12 12 11 11 11 11 11 11 10 10 10 9 9 8 7 6 5 5 5 5 5 5 5 5 3 4 7 8 8 9 10 10
11 8 10 13 13 13 13 13 13 12 12 11 11 11 11 10 10 10 10 9 9 8 8 7 7 6 6 5 5 4 4 4 4 4 3 3 3 6 7 8 10 10 10
8 7 10 14 14 13 13 13 12 11 11 11 10 10 10 10 10 9 9 9 8 8 7 7 6 6 5 5 5 4 4 4 4 3 2 3 3 6 7 9 11 11 11
8 7 9 14 14 13 13 12 11 11 10 10 10 9 9 9 9 9 9 8 8 7 7 6 6 6 5 5 5 5 5 5 4 2 3 3 4 7 8 10 12 11 11
8 6 8 12 12 12 12 11 11 10 10 10 9 8 8 8 8 8 8 8 7 7 7 7 6 6 6 5 6 6 6 6 4 3 3 3 5 8 9 11 12 12 11
9 6 6 10 12 11 11 10 10 10 9 9 8 8 8 7 7 8 8 8 8 7 7 7 7 6 6 6 7 7 7 7 5 4 4 4 7 10 10 12 12 12 11
8 6 4 4 6 9 9 9 8 8 8 8 8 8 8 8 7 8 8 8 8 8 8 8 7 7 7 7 7 7 8 8 4 3 4 4 7 11 10 12 12 12 12
6 5 4 3 3 3 5 7 7 7 6 7 8 8 8 7 7 8 8 8 8 8 8 8 8 8 7 7 8 8 8 7 4 4 3 4 9 11 11 12 13 13 12
5 3 3 3 3 3 4 6 7 6 5 5 6 7 6 4 4 5 7 8 9 8 8 8 8 8 8 8 8 8 6 2 3 3 3 6 10 12 12 12 12 11 12
4 2 2 3 3 3 3 3 3 4 3 3 2 3 3 3 3 4 5 8 8 8 8 8 8 7 5 3 5 6 3 3 3 3 4 8 10 12 11 12 12 13 13
5 3 2 3 3 2 2 2 2 2 2 3 3 3 2 2 2 2 2 3 4 5 4 4 4 3 3 2 2 2 3 3 3 3 4 9 11 13 13 12 13 13 14
5 4 2 3 2 2 2 1 1 1 1 2 3 4 3 2 2 2 2 2 2 2 2 2 2 3 3 3 4 4 4 3 3 3 5 10 11 12 13 12 12 13 13
5 4 3 3 3 2 2 1 1 1 1 2 2 2 3 2 2 2 2 2 2 2 2 2 2 3 3 3 4 4 5 5 5 5 4 10 12 12 13 13 13 13 13
4 4 3 3 3 3 2 2 1 1 1 1 0 1 1 2 2 2 2 2 2 2 2 2 3 3 3 3 4 4 5 5 5 5 4 7 11 12 12 13 13 13 13
4 3 3 3 3 3 2 2 1 1 1 1 0 0 1 1 2 2 2 2 2 2 2 2 2 2 2 3 4 4 4 5 4 5 5 4 5 10 13 13 13 14 15
4 3 2 3 3 3 2 2 1 1 1 1 0 0 1 1 2 2 2 2 2 1 1 2 2 2 3 3 3 3 3 3 4 4 4 4 4 5 8 12 12 13 14
4 3 2 2 2 2 2 1 1 1 0 0 0 0 1 1 2 2 1 2 2 1 1 2 2 2 2 3 3 3 3 3 3 4 4 4 4 4 4 7 11 11 12
3 2 2 1 1 1 1 1 1 1 0 0 0 1 1 1 2 2 1 2 1 1 1 2 2 2 2 3 3 3 3 3 2 3 3 3 4 5 4 4 5 6 10
2 2 1 1 0 1 1 0 0 1 1 1 1 1 1 1 1 1 1 1 1 1 2 2 1 2 2 1 0 2 3 3 2 2 2 2 3 3 4 4 3 3 4
2 1 1 1 0 1 1 1 1 1 1 1 1 1 2 2 1 1 2 2 2 2 2 2 1 1 1 1 2 0 2 3 3 2 1 2 3 2 3 4 4 4 3
1 1 1 1 0 1 0 0 1 1 1 1 1 1 2 2 2 2 3 2 3 3 3 3 2 3 2 2 2 3 2 3 2 2 2 2 2 2 2 2 3 3 4
1 1 1 0 1 1 0 1 1 1 1 3 3 2 3 3 3 3 2 3 3 3 3 3 3 2 3 2 2 2 3 3 2 2 2 2 2 2 2 2 2 2 3
1 1 0 1 1 2 1 1 1 1 2 2 2 2 3 3 3 3 3 2 3 3 3 3 2 2 2 3 2 2 1 1 2 2 2 3 2 2 2 2 2 2 2
1 0 1 1 2 2 2 1 1 1 2 2 2 2 2 2 2 3 2 2 3 3 3 3 3 3 3 3 3 2 2 2 2 2 2 2 2 3 2 1 1 1 2
Wind_Direction
159 164 150 140 135 129 126 123 119 116 114 113 113 112 113 115 118 122 125 129 133 135 135 136 138 137 135 133 132 133 134 137 139 147 150 154 157 160 160 156 153 147 146
155 157 147 139 137 134 132 129 126 122 120 119 119 118 118 121 124 127 130 132 136 140 141 143 143 143 141 139 136 138 140 139 146 155 158 161 165 166 164 160 154 150 148
146 151 147 142 140 138 137 134 131 129 126 125 125 126 126 128 131 134 136 138 142 146 149 150 150 151 151 151 148 149 153 154 153 163 162 165 174 176 170 164 158 151 149
145 150 149 144 143 142 141 138 136 135 134 133 133 134 135 136 138 140 143 146 150 154 156 159 161 163 164 169 172 174 176 179 184 177 172 182 194 186 176 168 162 157 155
141 146 149 146 146 145 144 143 142 142 141 141 142 142 143 145 146 149 153 157 160 162 165 169 172 175 179 187 192 198 205 209 202 195 187 196 207 203 189 180 171 166 161
138 146 150 147 149 149 147 147 148 148 148 149 150 151 151 153 155 160 164 167 170 173 177 181 185 189 195 201 207 214 223 230 223 208 210 211 205 207 202 187 179 174 169
141 147 149 144 145 149 151 151 153 155 157 158 161 161 160 162 167 173 175 177 180 186 190 193 198 203 209 214 218 223 230 236 228 222 221 219 211 209 203 190 184 182 179
139 140 142 146 146 151 156 157 159 163 164 167 170 170 172 176 181 186 186 187 190 194 199 203 208 214 221 224 227 232 234 237 237 233 228 226 219 215 203 191 189 187 185
122 126 131 143 150 158 159 161 164 169 173 176 179 182 185 189 194 197 195 200 203 206 211 215 218 223 229 230 233 238 241 239 233 225 235 227 220 215 204 195 191 188 188
109 124 139 147 149 154 163 169 172 174 177 183 190 192 193 198 203 204 206 210 214 219 221 223 225 227 231 236 240 242 242 243 235 237 234 229 220 215 209 200 196 195 196
98 112 135 147 160 166 170 175 175 182 191 195 200 204 202 206 209 211 216 218 221 223 224 225 227 231 234 239 244 245 242 224 231 238 234 233 224 217 212 204 201 200 203
104 121 142 154 165 168 179 169 171 183 191 194 192 205 209 205 206 209 219 221 224 226 228 230 233 236 235 236 246 246 226 215 227 237 235 231 223 216 212 210 206 207 210
126 119 127 150 147 168 181 172 179 186 187 191 197 201 203 203 209 212 215 228 228 228 228 234 234 234 229 224 229 234 224 215 218 232 235 228 222 219 216 216 212 213 214
125 117 106 123 133 153 149 166 182 183 187 201 208 203 194 195 207 211 210 214 213 219 223 227 223 229 233 231 228 231 230 223 218 222 231 228 223 221 222 218 216 217 218
131 130 128 119 124 129 115 120 134 155 188 206 215 208 192 192 207 217 219 210 211 211 215 222 224 227 235 244 243 236 234 232 226 219 229 227 222 221 222 221 217 220 222
146 147 140 124 130 126 122 122 131 132 132 169 207 212 182 188 202 205 216 209 214 210 211 208 220 223 230 239 252 251 245 239 233 223 222 227 227 222 221 221 221 224 226
143 137 136 136 127 128 127 130 127 147 139 130 132 205 149 167 213 200 197 200 214 218 215 206 223 231 241 246 254 257 251 243 237 225 219 215 221 225 226 225 225 225 227
133 123 127 118 117 133 140 142 144 137 146 163 151 215 197 200 216 188 196 214 210 202 213 212 209 229 242 245 251 255 252 247 242 227 221 217 215 225 228 228 227 227 228
135 125 115 109 118 127 140 133 127 121 108 32 82 248 245 205 203 187 189 221 204 184 218 233 213 210 230 247 251 252 254 246 242 235 225 217 212 214 217 231 233 234 234
128 117 116 101 101 115 108 82 56 50 52 62 238 233 211 226 194 184 209 223 198 166 221 241 233 226 222 233 254 266 266 258 244 228 222 218 218 221 218 224 229 236 237
93 97 90 65 42 124 99 95 209 284 272 248 227 243 217 220 201 180 223 221 200 191 214 225 227 236 241 216 306 307 301 281 262 240 231 219 225 227 221 217 218 221 233
77 59 47 38 330 266 223 208 211 221 251 246 253 248 233 224 216 198 209 214 208 206 223 231 207 218 244 171 147 108 322 325 314 283 263 236 246 247 239 226 217 215 222
93 76 51 336 331 285 280 43 359 15 346 339 301 265 246 226 225 221 215 212 214 198 213 227 215 200 225 243 172 158 167 237 290 305 277 259 252 249 252 249 232 228 228
176 145 115 352 346 330 4 148 222 237 256 261 260 263 266 244 240 240 231 214 217 212 219 229 216 206 193 226 230 199 188 180 182 292 313 289 264 252 252 256 249 241 235
204 187 162 1 342 320 306 223 259 281 271 279 285 281 280 274 251 238 240 229 227 229 230 230 222 209 199 202 207 201 202 198 185 183 270 297 305 274 250 241 241 256 250
236 321 356 331 306 297 298 289 248 255 280 285 282 281 282 279 267 252 245 240 233 232 234 231 223 214 211 209 208 195 182 183 203 190 218 258 282 284 280 275 266 263 264